PST,Max TemperatureF,Mean TemperatureF,Min TemperatureF,Max Dew PointF,MeanDew PointF,Min DewpointF,Max Humidity, Mean Humidity, Min Humidity, Max Sea Level PressureIn, Mean Sea Level PressureIn, Min Sea Level PressureIn, Max VisibilityMiles, Mean VisibilityMiles, Min VisibilityMiles, Max Wind SpeedMPH, Mean Wind SpeedMPH, Max Gust SpeedMPH,PrecipitationIn, CloudCover, Events, WindDirDegrees
2011-11-1,51,35,18,24,17,9,92,58,20,30.48,30.40,30.30,10,10,7,9,2,13,0.00,1,,34
2011-11-2,57,35,13,17,10,8,80,44,14,30.44,30.22,29.91,10,10,7,14,4,18,0.00,1,,172
2011-11-3,45,36,27,32,29,19,100,81,40,29.87,29.77,29.67,10,6,0,23,6,29,0.09,6,Fog-Snow,32
2011-11-4,39,27,15,27,22,16,92,77,48,29.95,29.85,29.70,10,10,10,13,3,16,0.00,4,,303
2011-11-5,34,24,14,30,26,15,100,91,78,29.91,29.82,29.73,10,4,0,17,7,20,0.05,7,Snow,157
2011-11-6,39,31,22,34,30,23,100,93,85,30.17,29.88,29.76,10,6,1,12,5,15,0.04,7,Snow,176
2011-11-7,32,25,18,28,23,18,100,95,78,30.34,30.22,30.13,10,6,0,8,2,9,0.00,6,Fog,74
2011-11-8,33,28,23,29,26,22,100,92,82,30.40,30.34,30.25,10,9,5,8,2,9,0.00,6,,155
2011-11-9,43,32,20,32,26,20,100,88,62,30.42,30.32,30.24,10,7,1,10,3,13,0.00,5,Fog,321
2011-11-10,55,39,22,32,26,17,100,88,22,30.27,30.18,30.03,10,5,0,16,5,20,0.00,4,Fog,330
2011-11-11,51,38,25,32,27,23,100,69,33,29.99,29.85,29.75,10,9,7,26,7,30,0.00,5,,294
2011-11-12,46,39,32,32,24,15,82,57,33,29.94,29.87,29.75,10,10,7,17,10,23,0.00,5,,286
2011-11-13,50,38,25,35,31,25,100,78,42,30.04,29.97,29.94,10,9,7,16,6,18,0.00,5,,247
2011-11-14,50,35,20,32,27,19,100,75,42,30.11,30.06,29.96,10,10,7,17,5,21,0.00,4,,271
2011-11-15,43,39,34,38,35,30,100,87,67,30.22,30.18,30.10,10,8,1,13,3,15,T,8,Rain,266
2011-11-16,52,45,37,40,38,37,100,88,59,30.22,30.15,30.05,10,9,3,18,7,23,T,7,Rain,185
2011-11-17,52,44,35,41,35,27,89,74,53,30.05,29.91,29.76,10,10,7,28,10,36,0.01,7,Rain,238
2011-11-18,37,28,19,31,26,18,92,84,54,29.86,29.68,29.63,10,5,0,26,12,32,0.01,7,Fog-Snow,265
2011-11-19,35,27,19,28,22,16,92,84,61,29.90,29.80,29.72,10,8,2,17,8,21,T,6,Snow,158
2011-11-20,39,33,26,34,29,26,100,92,76,29.97,29.84,29.74,10,7,2,10,2,14,0.01,6,Snow,164
2011-11-21,42,33,23,32,29,23,100,78,60,30.06,29.99,29.93,10,9,7,29,12,38,T,6,Rain,172
2011-11-22,47,42,37,36,31,26,76,69,59,30.03,29.97,29.90,10,10,7,32,21,39,0.03,7,Rain,166
2011-11-23,46,40,34,36,31,28,100,73,53,29.87,29.78,29.70,10,10,7,40,20,48,0.13,6,Rain,174
2011-11-24,45,39,33,37,34,32,100,89,65,30.03,29.89,29.81,10,9,5,14,6,18,0.07,7,Rain-Snow,207
2011-11-25,45,36,26,36,30,25,92,80,53,30.49,30.30,30.08,10,10,10,22,5,26,0.01,4,,246
2011-11-26,48,36,23,34,28,21,100,85,58,30.56,30.47,30.38,10,10,6,7,2,9,0.00,3,,347
2011-11-27,57,42,27,36,31,27,100,78,41,30.36,30.31,30.25,10,9,5,10,3,13,0.00,5,,317
2011-11-28,53,40,27,38,34,27,100,82,54,30.38,30.33,30.29,10,9,6,10,2,13,T,6,Rain,57
2011-11-29,51,37,23,38,30,23,100,89,55,30.40,30.31,30.21,10,4,0,20,4,24,0.00,5,Fog,268
2011-11-30,47,35,23,29,23,19,96,66,34,30.58,30.42,30.30,10,10,7,22,10,32,0.00,1,,332